| time (UTC) | temp F | wind direction | speed knots | gust knots | rain 1hr in | rain 24hr in | rain mn in | humidity % | barometer mb |
| 20260901000523 | 68 | 335 | 3.5 | 4.3 | 0.00 | 0.01 | 0.00 | 61 | 1024.4 |
| 20260831235518 | 66 | 336 | 3.5 | 5.2 | 0.00 | 0.01 | 0.00 | 66 | 1024.7 |
| 20260831235017 | 64 | 341 | 2.6 | 4.3 | 0.00 | 0.01 | 0.00 | 66 | 1024.8 |
| 20260831234516 | 65 | 326 | 3.5 | 5.2 | 0.00 | 0.01 | 0.00 | 63 | 1024.9 |
| 20260831234015 | 64 | 322 | 3.5 | 5.2 | 0.00 | 0.01 | 0.00 | 67 | 1024.9 |
| 20260831233513 | 64 | 328 | 3.5 | 4.3 | 0.00 | 0.01 | 0.00 | 69 | 1025.0 |
| 20260831233012 | 64 | 312 | 4.3 | 5.2 | 0.00 | 0.01 | 0.00 | 67 | 1025.1 |
| 20260831232008 | 63 | 313 | 4.3 | 6.1 | 0.00 | 0.01 | 0.00 | 71 | 1025.3 |
| 20260831231507 | 62 | 314 | 3.5 | 5.2 | 0.00 | 0.01 | 0.00 | 71 | 1025.3 |
| 20260831231005 | 63 | 326 | 3.5 | 4.3 | 0.00 | 0.01 | 0.00 | 70 | 1025.4 |
| 20260831230504 | 62 | 322 | 3.5 | 7.0 | 0.00 | 0.01 | 0.00 | 71 | 1025.4 |
| 20260831225459 | 62 | 324 | 4.3 | 6.1 | 0.00 | 0.01 | 0.00 | 69 | 1025.4 |
| 20260831224959 | 64 | 335 | 4.3 | 7.0 | 0.00 | 0.01 | 0.00 | 67 | 1025.6 |
| 20260831224458 | 63 | 329 | 4.3 | 7.0 | 0.00 | 0.01 | 0.00 | 68 | 1025.6 |
| 20260831223453 | 61 | 322 | 4.3 | 6.1 | 0.00 | 0.01 | 0.00 | 76 | 1025.7 |
| 20260831222449 | 60 | 318 | 5.2 | 7.8 | 0.00 | 0.01 | 0.00 | 75 | 1025.7 |
| 20260831221948 | 59 | 320 | 5.2 | 7.8 | 0.00 | 0.01 | 0.00 | 78 | 1025.8 |
| 20260831221447 | 59 | 316 | 4.3 | 7.0 | 0.00 | 0.01 | 0.00 | 79 | 1025.8 |
| 20260831220945 | 58 | 309 | 4.3 | 7.8 | 0.00 | 0.01 | 0.00 | 79 | 1025.8 |
| 20260831220444 | 58 | 314 | 3.5 | 7.0 | 0.00 | 0.01 | 0.00 | 86 | 1025.8 |
| 20260831215943 | 57 | 280 | 4.3 | 7.0 | 0.00 | 0.01 | 0.00 | 88 | 1025.8 |
| 20260831214938 | 56 | 262 | 5.2 | 7.8 | 0.00 | 0.01 | 0.00 | 92 | 1025.8 |
| 20260831214437 | 56 | 260 | 5.2 | 7.8 | 0.00 | 0.01 | 0.00 | 93 | 1025.7 |
| 20260831213431 | 57 | 263 | 5.2 | 7.0 | 0.00 | 0.01 | 0.00 | 94 | 1025.6 |
| 20260831211924 | 57 | 255 | 3.5 | 5.2 | 0.00 | 0.01 | 0.00 | 94 | 1025.6 |
| 20260831211423 | 57 | 308 | 1.7 | 3.5 | 0.00 | 0.01 | 0.00 | 94 | 1025.5 |
| 20260831210922 | 56 | 310 | 1.7 | 4.3 | 0.00 | 0.01 | 0.00 | 95 | 1025.5 |
| 20260831210421 | 56 | 336 | 1.7 | 4.3 | 0.00 | 0.01 | 0.00 | 96 | 1025.5 |
| 20260831205919 | 56 | 330 | 2.6 | 5.2 | 0.00 | 0.01 | 0.00 | 97 | 1025.4 |
| 20260831205418 | 56 | 326 | 2.6 | 4.3 | 0.00 | 0.01 | 0.00 | 98 | 1025.4 |
| 20260831204917 | 55 | 328 | 2.6 | 5.2 | 0.00 | 0.01 | 0.00 | 97 | 1025.3 |
| 20260831204416 | 55 | 320 | 2.6 | 4.3 | 0.00 | 0.01 | 0.00 | 97 | 1025.2 |
| 20260831203915 | 55 | 322 | 1.7 | 3.5 | 0.00 | 0.01 | 0.00 | 97 | 1025.2 |
| 20260831202910 | 55 | 291 | 2.6 | 4.3 | 0.00 | 0.01 | 0.00 | 97 | 1025.1 |
| 20260831202409 | 55 | 289 | 2.6 | 4.3 | 0.00 | 0.01 | 0.00 | 97 | 1025.0 |
| 20260831201405 | 55 | 322 | 2.6 | 4.3 | 0.00 | 0.01 | 0.00 | 98 | 1025.0 |
| 20260831200903 | 55 | 335 | 2.6 | 4.3 | 0.00 | 0.01 | 0.00 | 98 | 1025.0 |
| 20260831200402 | 55 | 332 | 2.6 | 5.2 | 0.00 | 0.01 | 0.00 | 98 | 1024.9 |
| 20260831195901 | 54 | 346 | 2.6 | 3.5 | 0.00 | 0.01 | 0.00 | 98 | 1024.8 |
| 20260831194857 | 54 | 351 | 2.6 | 3.5 | 0.00 | 0.01 | 0.00 | 97 | 1024.8 |
| 20260831194356 | 54 | 353 | 1.7 | 2.6 | 0.00 | 0.01 | 0.00 | 97 | 1024.8 |
| 20260831193855 | 54 | 354 | 1.7 | 3.5 | 0.00 | 0.01 | 0.00 | 96 | 1024.8 |
| 20260831193354 | 54 | 353 | 1.7 | 2.6 | 0.00 | 0.01 | 0.00 | 97 | 1024.8 |
| 20260831192853 | 54 | 357 | 1.7 | 2.6 | 0.00 | 0.01 | 0.00 | 97 | 1024.8 |
| 20260831192352 | 54 | 354 | 1.7 | 2.6 | 0.00 | 0.01 | 0.00 | 97 | 1024.7 |
| 20260831191851 | 54 | 358 | 1.7 | 2.6 | 0.00 | 0.01 | 0.00 | 96 | 1024.7 |
| 20260831191350 | 54 | 358 | 1.7 | 2.6 | 0.00 | 0.01 | 0.00 | 96 | 1024.7 |
| 20260831190848 | 54 | 357 | 1.7 | 2.6 | 0.00 | 0.01 | 0.00 | 96 | 1024.8 |
| 20260831185844 | 54 | 351 | 1.7 | 2.6 | 0.00 | 0.01 | 0.00 | 95 | 1024.7 |
| 20260831185343 | 55 | 346 | 1.7 | 3.5 | 0.00 | 0.01 | 0.00 | 96 | 1024.7 |
| 20260831184841 | 55 | 346 | 2.6 | 4.3 | 0.00 | 0.01 | 0.00 | 95 | 1024.8 |
| 20260831184340 | 55 | 355 | 3.5 | 7.0 | 0.00 | 0.01 | 0.00 | 95 | 1024.8 |
| 20260831183839 | 55 | 351 | 4.3 | 5.2 | 0.00 | 0.01 | 0.00 | 95 | 1024.8 |
| 20260831183338 | 55 | 352 | 3.5 | 5.2 | 0.00 | 0.01 | 0.00 | 95 | 1024.8 |
| 20260831182837 | 55 | 348 | 3.5 | 5.2 | 0.00 | 0.01 | 0.00 | 95 | 1024.8 |
| 20260831182336 | 55 | 353 | 3.5 | 5.2 | 0.00 | 0.01 | 0.00 | 95 | 1024.8 |
| 20260831181835 | 55 | 355 | 3.5 | 6.1 | 0.00 | 0.01 | 0.00 | 94 | 1024.8 |
| 20260831181334 | 55 | 359 | 4.3 | 7.0 | 0.00 | 0.01 | 0.00 | 94 | 1024.8 |
| 20260831180833 | 55 | 358 | 4.3 | 7.8 | 0.00 | 0.01 | 0.00 | 94 | 1024.8 |
| 20260831175325 | 55 | 359 | 4.3 | 7.0 | 0.00 | 0.01 | 0.00 | 93 | 1024.8 |
| 20260831173313 | 56 | 0 | 4.3 | 6.1 | 0.00 | 0.01 | 0.00 | 92 | 1024.7 |
| 20260831172812 | 56 | 7 | 4.3 | 8.7 | 0.00 | 0.01 | 0.00 | 92 | 1024.7 |
| 20260831172311 | 56 | 6 | 5.2 | 7.8 | 0.00 | 0.01 | 0.00 | 92 | 1024.8 |
| 20260831171810 | 56 | 6 | 4.3 | 7.8 | 0.00 | 0.01 | 0.00 | 92 | 1024.9 |
| 20260831171309 | 56 | 8 | 5.2 | 7.0 | 0.00 | 0.01 | 0.00 | 91 | 1024.9 |
| 20260831170304 | 57 | 9 | 5.2 | 7.0 | 0.00 | 0.01 | 0.00 | 91 | 1025.0 |
| 20260831165232 | 57 | 10 | 7.0 | 10.4 | 0.00 | 0.01 | 0.00 | 90 | 1025.1 |
| 20260831164731 | 57 | 10 | 7.0 | 8.7 | 0.00 | 0.01 | 0.00 | 89 | 1025.1 |
| 20260831164230 | 58 | 11 | 7.0 | 11.3 | 0.00 | 0.01 | 0.00 | 89 | 1025.2 |
| 20260831163728 | 58 | 14 | 7.0 | 10.4 | 0.00 | 0.01 | 0.00 | 90 | 1025.2 |
| 20260831163228 | 58 | 13 | 7.8 | 10.4 | 0.00 | 0.01 | 0.00 | 90 | 1025.3 |
| 20260831162727 | 58 | 14 | 7.8 | 10.4 | 0.00 | 0.01 | 0.00 | 89 | 1025.4 |
| 20260831162225 | 58 | 15 | 7.0 | 10.4 | 0.00 | 0.01 | 0.00 | 90 | 1025.4 |
| 20260831161724 | 58 | 15 | 7.0 | 8.7 | 0.00 | 0.01 | 0.00 | 91 | 1025.6 |
| 20260831161223 | 58 | 15 | 7.0 | 11.3 | 0.00 | 0.01 | 0.00 | 92 | 1025.7 |
| 20260831160721 | 58 | 13 | 7.0 | 9.6 | 0.00 | 0.01 | 0.00 | 93 | 1025.7 |
| 20260831160218 | 57 | 12 | 7.0 | 9.6 | 0.00 | 0.01 | 0.00 | 94 | 1025.7 |
| 20260831155717 | 57 | 11 | 7.0 | 9.6 | 0.00 | 0.01 | 0.00 | 95 | 1025.8 |
| 20260831155213 | 57 | 12 | 7.0 | 9.6 | 0.00 | 0.01 | 0.00 | 95 | 1025.9 |
| 20260831154709 | 56 | 11 | 6.1 | 10.4 | 0.00 | 0.01 | 0.00 | 95 | 1025.9 |
| 20260831154208 | 56 | 10 | 6.1 | 8.7 | 0.00 | 0.01 | 0.00 | 96 | 1026.0 |
| 20260831153658 | 56 | 11 | 5.2 | 7.8 | 0.00 | 0.01 | 0.00 | 95 | 1026.0 |
| 20260831153156 | 56 | 11 | 4.3 | 8.7 | 0.00 | 0.01 | 0.00 | 95 | 1026.1 |
| 20260831152653 | 56 | 13 | 4.3 | 7.8 | 0.00 | 0.01 | 0.00 | 95 | 1026.2 |
| 20260831151632 | 56 | 10 | 4.3 | 7.0 | 0.00 | 0.01 | 0.00 | 95 | 1026.3 |
| 20260831151131 | 57 | 358 | 4.3 | 7.8 | 0.00 | 0.01 | 0.00 | 95 | 1026.3 |
| 20260831150626 | 57 | 360 | 3.5 | 7.0 | 0.00 | 0.01 | 0.00 | 95 | 1026.4 |
| 20260831150124 | 57 | 10 | 4.3 | 7.8 | 0.00 | 0.01 | 0.00 | 95 | 1026.4 |
| 20260831145623 | 57 | 4 | 4.3 | 7.8 | 0.00 | 0.01 | 0.00 | 95 | 1026.5 |
| 20260831144104 | 57 | 8 | 5.2 | 7.8 | 0.00 | 0.01 | 0.00 | 95 | 1026.6 |
| 20260831143602 | 57 | 8 | 5.2 | 7.8 | 0.00 | 0.01 | 0.00 | 95 | 1026.7 |
| 20260831143102 | 58 | 4 | 5.2 | 10.4 | 0.00 | 0.01 | 0.00 | 95 | 1026.7 |
| 20260831142600 | 58 | 7 | 6.1 | 10.4 | 0.00 | 0.01 | 0.00 | 94 | 1026.8 |
| 20260831142049 | 58 | 5 | 7.0 | 9.6 | 0.00 | 0.01 | 0.00 | 95 | 1026.8 |
| 20260831141527 | 58 | 5 | 6.1 | 9.6 | 0.00 | 0.01 | 0.00 | 95 | 1026.8 |
| 20260831140517 | 58 | 4 | 6.1 | 8.7 | 0.00 | 0.01 | 0.00 | 95 | 1026.8 |
| 20260831140016 | 58 | 8 | 6.1 | 10.4 | 0.00 | 0.01 | 0.00 | 96 | 1026.8 |
| 20260831135515 | 58 | 2 | 6.1 | 9.6 | 0.00 | 0.01 | 0.01 | 96 | 1026.8 |
| 20260831134007 | 58 | 5 | 6.1 | 8.7 | 0.00 | 0.01 | 0.01 | 96 | 1027.0 |
| 20260831133506 | 58 | 6 | 6.1 | 9.6 | 0.00 | 0.01 | 0.01 | 96 | 1027.1 |
| 20260831132459 | 58 | 2 | 7.0 | 11.3 | 0.00 | 0.01 | 0.01 | 96 | 1027.1 |
| 20260831131957 | 58 | 2 | 7.0 | 10.4 | 0.00 | 0.01 | 0.01 | 95 | 1027.1 |
| 20260831130953 | 58 | 358 | 7.0 | 8.7 | 0.00 | 0.01 | 0.01 | 95 | 1027.2 |
| 20260831130443 | 58 | 359 | 7.0 | 10.4 | 0.00 | 0.01 | 0.01 | 95 | 1027.2 |
| 20260831125933 | 58 | 360 | 7.0 | 9.6 | 0.00 | 0.01 | 0.01 | 95 | 1027.3 |
| 20260831124410 | 58 | 2 | 7.0 | 10.4 | 0.00 | 0.01 | 0.01 | 94 | 1027.4 |
| 20260831123908 | 58 | 0 | 7.0 | 8.7 | 0.00 | 0.01 | 0.01 | 94 | 1027.4 |
| 20260831122904 | 59 | 3 | 7.0 | 10.4 | 0.00 | 0.01 | 0.01 | 94 | 1027.5 |
| 20260831122402 | 59 | 0 | 7.0 | 9.6 | 0.00 | 0.01 | 0.01 | 93 | 1027.6 |
| 20260831121901 | 59 | 3 | 7.0 | 9.6 | 0.00 | 0.01 | 0.01 | 93 | 1027.6 |
| 20260831121400 | 59 | 3 | 7.0 | 8.7 | 0.00 | 0.01 | 0.01 | 93 | 1027.6 |
| 20260831120355 | 59 | 3 | 7.0 | 9.6 | 0.00 | 0.01 | 0.01 | 93 | 1027.7 |
| 20260831115853 | 59 | 1 | 7.0 | 9.6 | 0.00 | 0.01 | 0.01 | 93 | 1027.8 |
| 20260831115352 | 59 | 1 | 7.0 | 10.4 | 0.00 | 0.01 | 0.01 | 93 | 1027.8 |
| 20260831114851 | 59 | 2 | 7.0 | 9.6 | 0.00 | 0.01 | 0.01 | 93 | 1027.8 |
| 20260831114330 | 59 | 0 | 6.1 | 7.8 | 0.00 | 0.01 | 0.01 | 93 | 1027.8 |
| 20260831113325 | 59 | 0 | 5.2 | 7.8 | 0.00 | 0.01 | 0.01 | 92 | 1027.9 |
| 20260831112825 | 59 | 360 | 5.2 | 7.0 | 0.00 | 0.01 | 0.01 | 92 | 1028.0 |
| 20260831112323 | 59 | 5 | 5.2 | 7.8 | 0.00 | 0.01 | 0.01 | 91 | 1028.0 |
| 20260831111822 | 60 | 7 | 5.2 | 7.0 | 0.00 | 0.01 | 0.01 | 90 | 1028.0 |
| 20260831111321 | 60 | 10 | 5.2 | 7.8 | 0.00 | 0.01 | 0.01 | 90 | 1028.0 |
| 20260831110820 | 60 | 8 | 6.1 | 8.7 | 0.00 | 0.01 | 0.01 | 90 | 1027.8 |
| 20260831110313 | 60 | 10 | 6.1 | 8.7 | 0.00 | 0.01 | 0.01 | 89 | 1027.9 |
| 20260831105756 | 60 | 9 | 6.1 | 8.7 | 0.00 | 0.01 | 0.01 | 90 | 1027.9 |
| 20260831105254 | 60 | 10 | 6.1 | 7.8 | 0.00 | 0.01 | 0.01 | 89 | 1027.8 |
| 20260831104249 | 60 | 11 | 6.1 | 8.7 | 0.00 | 0.01 | 0.01 | 89 | 1027.8 |
| 20260831103747 | 60 | 13 | 6.1 | 8.7 | 0.00 | 0.01 | 0.01 | 89 | 1027.9 |
| 20260831103246 | 61 | 12 | 6.1 | 8.7 | 0.00 | 0.01 | 0.01 | 89 | 1027.8 |
| 20260831102238 | 61 | 12 | 6.1 | 8.7 | 0.00 | 0.01 | 0.01 | 89 | 1027.9 |
| 20260831101729 | 61 | 12 | 6.1 | 8.7 | 0.00 | 0.01 | 0.01 | 88 | 1027.9 |
| 20260831101228 | 61 | 13 | 6.1 | 7.8 | 0.00 | 0.01 | 0.01 | 88 | 1027.8 |
| 20260831100206 | 61 | 14 | 6.1 | 7.8 | 0.00 | 0.01 | 0.01 | 87 | 1027.8 |
| 20260831095201 | 61 | 13 | 6.1 | 7.8 | 0.00 | 0.01 | 0.01 | 88 | 1027.8 |
| 20260831094700 | 61 | 12 | 5.2 | 7.8 | 0.00 | 0.01 | 0.01 | 88 | 1027.8 |
| 20260831094157 | 61 | 12 | 5.2 | 7.0 | 0.00 | 0.01 | 0.01 | 88 | 1027.9 |
| 20260831093654 | 62 | 11 | 5.2 | 6.1 | 0.00 | 0.01 | 0.01 | 88 | 1027.8 |
| 20260831093152 | 62 | 16 | 5.2 | 7.0 | 0.00 | 0.01 | 0.01 | 87 | 1027.8 |
| 20260831092650 | 62 | 16 | 5.2 | 7.8 | 0.00 | 0.01 | 0.01 | 87 | 1027.8 |
| 20260831091645 | 62 | 17 | 5.2 | 7.8 | 0.00 | 0.01 | 0.01 | 86 | 1027.8 |
| 20260831091144 | 62 | 16 | 5.2 | 7.0 | 0.00 | 0.01 | 0.01 | 85 | 1027.8 |
| 20260831090643 | 62 | 14 | 4.3 | 7.0 | 0.00 | 0.01 | 0.01 | 85 | 1027.8 |
| 20260831090142 | 62 | 17 | 4.3 | 6.1 | 0.00 | 0.01 | 0.01 | 84 | 1027.8 |
| 20260831085640 | 63 | 15 | 4.3 | 6.1 | 0.00 | 0.01 | 0.01 | 82 | 1027.8 |
| 20260831085139 | 63 | 24 | 5.2 | 7.8 | 0.00 | 0.01 | 0.01 | 81 | 1027.8 |
| 20260831084638 | 63 | 23 | 6.1 | 8.7 | 0.00 | 0.01 | 0.01 | 80 | 1027.7 |
| 20260831084137 | 63 | 24 | 6.1 | 7.8 | 0.00 | 0.01 | 0.01 | 80 | 1027.8 |
| 20260831083132 | 63 | 31 | 5.2 | 7.0 | 0.00 | 0.01 | 0.01 | 79 | 1027.7 |
| 20260831082631 | 63 | 32 | 4.3 | 6.1 | 0.00 | 0.01 | 0.01 | 79 | 1027.7 |
| 20260831081626 | 62 | 46 | 6.1 | 9.6 | 0.00 | 0.01 | 0.01 | 78 | 1027.7 |
| 20260831081124 | 62 | 45 | 5.2 | 9.6 | 0.00 | 0.01 | 0.01 | 79 | 1027.7 |
| 20260831080623 | 62 | 62 | 7.0 | 9.6 | 0.00 | 0.01 | 0.01 | 78 | 1027.7 |
| 20260831080122 | 62 | 64 | 7.0 | 10.4 | 0.00 | 0.01 | 0.01 | 77 | 1027.7 |
| 20260831075621 | 62 | 68 | 7.8 | 9.6 | 0.00 | 0.01 | 0.01 | 77 | 1027.7 |
| 20260831075118 | 62 | 74 | 7.0 | 8.7 | 0.00 | 0.01 | 0.01 | 77 | 1027.7 |
| 20260831074617 | 62 | 76 | 7.0 | 9.6 | 0.00 | 0.01 | 0.01 | 76 | 1027.6 |
| 20260831073613 | 62 | 71 | 7.8 | 9.6 | 0.00 | 0.01 | 0.01 | 75 | 1027.5 |
| 20260831073112 | 62 | 76 | 7.8 | 8.7 | 0.00 | 0.01 | 0.01 | 77 | 1027.5 |
| 20260831072610 | 63 | 79 | 7.8 | 9.6 | 0.00 | 0.01 | 0.01 | 76 | 1027.5 |
| 20260831072109 | 63 | 79 | 7.8 | 9.6 | 0.00 | 0.01 | 0.01 | 75 | 1027.5 |
| 20260831071607 | 63 | 82 | 7.8 | 10.4 | 0.00 | 0.01 | 0.01 | 72 | 1027.5 |
| 20260831071105 | 64 | 80 | 7.8 | 9.6 | 0.00 | 0.01 | 0.01 | 71 | 1027.5 |
| 20260831070604 | 65 | 82 | 7.0 | 9.6 | 0.00 | 0.01 | 0.01 | 69 | 1027.5 |
| 20260831065559 | 66 | 90 | 7.0 | 9.6 | 0.00 | 0.01 | 0.01 | 66 | 1027.5 |
| 20260831064554 | 67 | 93 | 7.8 | 9.6 | 0.00 | 0.01 | 0.01 | 64 | 1027.4 |
| 20260831064053 | 69 | 100 | 6.1 | 7.8 | 0.00 | 0.01 | 0.01 | 60 | 1027.4 |
| 20260831063552 | 69 | 102 | 6.1 | 7.8 | 0.00 | 0.01 | 0.01 | 61 | 1027.3 |
| 20260831063050 | 69 | 100 | 6.1 | 8.7 | 0.00 | 0.01 | 0.01 | 61 | 1027.2 |
| 20260831062549 | 69 | 98 | 6.1 | 8.7 | 0.00 | 0.01 | 0.01 | 59 | 1027.2 |
| 20260831062047 | 69 | 103 | 6.1 | 8.7 | 0.00 | 0.01 | 0.01 | 60 | 1027.1 |
| 20260831061546 | 70 | 108 | 6.1 | 8.7 | 0.00 | 0.01 | 0.01 | 59 | 1027.1 |
| 20260831061045 | 70 | 100 | 6.1 | 8.7 | 0.00 | 0.01 | 0.01 | 60 | 1027.1 |
| 20260831060041 | 70 | 98 | 7.0 | 8.7 | 0.00 | 0.01 | 0.01 | 58 | 1027.1 |
| 20260831055540 | 68 | 97 | 7.0 | 8.7 | 0.00 | 0.01 | 0.01 | 60 | 1027.0 |
| 20260831055039 | 69 | 99 | 7.0 | 8.7 | 0.00 | 0.01 | 0.01 | 60 | 1027.1 |
| 20260831054538 | 69 | 93 | 6.1 | 7.8 | 0.00 | 0.01 | 0.01 | 60 | 1027.1 |
| 20260831053533 | 71 | 106 | 5.2 | 7.8 | 0.00 | 0.01 | 0.01 | 58 | 1027.1 |
| 20260831053032 | 71 | 110 | 4.3 | 7.0 | 0.00 | 0.01 | 0.01 | 58 | 1027.1 |
| 20260831052531 | 71 | 115 | 5.2 | 7.8 | 0.00 | 0.01 | 0.01 | 55 | 1027.1 |
| 20260831052029 | 71 | 118 | 6.1 | 7.8 | 0.00 | 0.01 | 0.01 | 56 | 1027.1 |
| 20260831051025 | 72 | 119 | 5.2 | 7.8 | 0.00 | 0.01 | 0.01 | 55 | 1027.1 |
| 20260831050524 | 72 | 114 | 5.2 | 7.0 | 0.00 | 0.01 | 0.01 | 56 | 1027.1 |
| 20260831045016 | 72 | 116 | 5.2 | 7.0 | 0.00 | 0.01 | 0.01 | 54 | 1027.1 |
| 20260831044515 | 71 | 118 | 6.1 | 7.8 | 0.00 | 0.01 | 0.01 | 58 | 1027.1 |
| 20260831044014 | 71 | 117 | 7.0 | 8.7 | 0.00 | 0.01 | 0.01 | 57 | 1027.2 |
| 20260831043513 | 71 | 115 | 6.1 | 7.8 | 0.00 | 0.01 | 0.01 | 56 | 1027.3 |
| 20260831043012 | 72 | 115 | 6.1 | 7.8 | 0.00 | 0.01 | 0.01 | 54 | 1027.3 |
| 20260831042511 | 71 | 114 | 6.1 | 8.7 | 0.00 | 0.01 | 0.01 | 56 | 1027.3 |
| 20260831042010 | 72 | 115 | 6.1 | 7.8 | 0.00 | 0.01 | 0.01 | 54 | 1027.4 |
| 20260831035148 | 73 | 119 | 4.3 | 6.1 | 0.00 | 0.01 | 0.01 | 53 | 1027.4 |
| 20260831034647 | 72 | 123 | 5.2 | 7.0 | 0.00 | 0.01 | 0.01 | 53 | 1027.5 |
| 20260831034146 | 71 | 119 | 5.2 | 7.0 | 0.00 | 0.01 | 0.01 | 57 | 1027.5 |
| 20260831033141 | 71 | 110 | 5.2 | 6.1 | 0.00 | 0.01 | 0.01 | 55 | 1027.7 |
| 20260831032123 | 71 | 109 | 5.2 | 6.1 | 0.00 | 0.01 | 0.01 | 57 | 1027.8 |
| 20260831031622 | 71 | 101 | 5.2 | 7.8 | 0.00 | 0.01 | 0.01 | 58 | 1027.9 |
| 20260831031118 | 71 | 104 | 5.2 | 7.0 | 0.00 | 0.01 | 0.01 | 54 | 1027.9 |
| 20260831030616 | 71 | 102 | 4.3 | 6.1 | 0.00 | 0.01 | 0.01 | 54 | 1028.0 |
| 20260831030114 | 71 | 109 | 4.3 | 6.1 | 0.00 | 0.01 | 0.01 | 56 | 1028.0 |
| 20260831025613 | 72 | 111 | 5.2 | 6.1 | 0.00 | 0.01 | 0.01 | 57 | 1028.1 |
| 20260831025110 | 72 | 113 | 4.3 | 6.1 | 0.00 | 0.01 | 0.01 | 59 | 1028.2 |
| 20260831024608 | 72 | 116 | 4.3 | 6.1 | 0.00 | 0.01 | 0.01 | 53 | 1028.3 |
| 20260831024105 | 71 | 109 | 5.2 | 6.1 | 0.00 | 0.01 | 0.01 | 58 | 1028.3 |
| 20260831023604 | 72 | 106 | 5.2 | 7.0 | 0.00 | 0.01 | 0.01 | 56 | 1028.4 |
| 20260831023103 | 71 | 113 | 4.3 | 6.1 | 0.00 | 0.01 | 0.01 | 57 | 1028.5 |
| 20260831022602 | 71 | 110 | 5.2 | 6.1 | 0.00 | 0.01 | 0.01 | 58 | 1028.5 |
| 20260831022101 | 70 | 110 | 5.2 | 6.1 | 0.00 | 0.01 | 0.01 | 62 | 1028.7 |
| 20260831021600 | 69 | 101 | 5.2 | 7.0 | 0.00 | 0.01 | 0.01 | 60 | 1028.7 |
| 20260831020555 | 68 | 98 | 4.3 | 6.1 | 0.00 | 0.01 | 0.01 | 63 | 1028.9 |
| 20260831020054 | 67 | 82 | 5.2 | 6.1 | 0.00 | 0.01 | 0.01 | 65 | 1028.9 |
| 20260831015553 | 67 | 73 | 3.5 | 6.1 | 0.00 | 0.01 | 0.01 | 64 | 1029.0 |
| 20260831014549 | 68 | 28 | 1.7 | 4.3 | 0.01 | 0.01 | 0.01 | 59 | 1029.1 |
| 20260831014048 | 68 | 15 | 2.6 | 4.3 | 0.01 | 0.01 | 0.01 | 63 | 1029.2 |
| 20260831013546 | 68 | 12 | 2.6 | 3.5 | 0.01 | 0.01 | 0.01 | 65 | 1029.3 |
| 20260831012540 | 67 | 339 | 2.6 | 3.5 | 0.01 | 0.01 | 0.01 | 63 | 1029.3 |
| 20260831012038 | 67 | 329 | 2.6 | 3.5 | 0.01 | 0.01 | 0.01 | 66 | 1029.3 |
| 20260831011537 | 66 | 326 | 2.6 | 3.5 | 0.01 | 0.01 | 0.01 | 72 | 1029.3 |
| 20260831011036 | 65 | 319 | 3.5 | 5.2 | 0.01 | 0.01 | 0.01 | 69 | 1029.4 |
| 20260831010032 | 65 | 317 | 1.7 | 3.5 | 0.01 | 0.01 | 0.01 | 69 | 1029.5 |
| 20260831005531 | 65 | 339 | 1.7 | 3.5 | 0.01 | 0.01 | 0.01 | 70 | 1029.5 |
| 20260831005029 | 64 | 316 | 2.6 | 4.3 | 0.01 | 0.01 | 0.01 | 71 | 1029.5 |
| 20260831004528 | 63 | 276 | 3.5 | 7.0 | 0.00 | 0.00 | 0.00 | 72 | 1029.5 |
| 20260831004027 | 62 | 264 | 4.3 | 6.1 | 0.00 | 0.00 | 0.00 | 72 | 1029.6 |
| 20260831003526 | 62 | 258 | 4.3 | 7.0 | 0.00 | 0.00 | 0.00 | 74 | 1029.6 |
| 20260831003025 | 62 | 264 | 4.3 | 7.0 | 0.00 | 0.00 | 0.00 | 74 | 1029.6 |
| 20260831002021 | 62 | 281 | 3.5 | 7.0 | 0.00 | 0.00 | 0.00 | 72 | 1029.6 |
| 20260831001520 | 62 | 294 | 2.6 | 6.1 | 0.00 | 0.00 | 0.00 | 73 | 1029.6 |